sat.trackr.live / text

‹ back to catalog

STARLINK-35132

NORAD 66461 · 2025-262F

PAYLOAD ACTIVE UNKNOWN

§ Identity

Operator
Country
US
Launch date
2025-11-15
Launch site
AFETR
Launch vehicle
Mass (kg)
RCS (m²)

Purposes: comms

External: N2YO · Heavens-Above · Gunter

§ Orbital elements

Epoch: 2026-09-20T09:06:17.411616Z

Period
94.27 min
Inclination
43.0005°
Eccentricity
0.0001514
Mean motion
15.27587776 rev/d
Perigee alt
482.0 km
Apogee alt
484.1 km
Semi-major
6,861.2 km
B*
2.8771e-4
RAAN
276.4986°
Arg perigee
265.1076°
Mean anomaly
94.9603°
Rev number
4,868

§ Raw data

STARLINK-351321 66461U 25262F   26263.37936819  .00007665  00000+0  28771-3 0  99962 66461  43.0005 276.4986 0001514 265.1076  94.9603 15.27587776 48689

JSON: /api/v1/satellites/66461 · /tle

For live sub-satellite position, see the globe view (requires WebGL).

§ Visibility from observer

Set your observer location to see the next 7 days of passes ≥ 10°. The values pass through the URL so the page stays shareable.

No JS? Fill the form by hand. The geolocation button needs JavaScript.